| time (UTC) | temp F | wind direction | speed MPH | gust MPH | rain 1hr in | rain 24hr in | rain mn in | humidity % | barometer mb |
| 20260505053028 | 28 | 310 | 1.0 | 6.0 | 0.00 | 0.06 | 0.00 | 62 | 1006.7 |
| 20260505051526 | 28 | 231 | 1.0 | 5.0 | 0.00 | 0.06 | 0.00 | 63 | 1006.6 |
| 20260505041529 | 30 | 297 | 1.0 | 5.0 | 0.00 | 0.06 | 0.06 | 62 | 1006.4 |
| 20260505040030 | 31 | 294 | 1.0 | 8.0 | 0.00 | 0.06 | 0.06 | 60 | 1006.4 |
| 20260505034518 | 32 | 302 | 3.0 | 8.0 | 0.00 | 0.06 | 0.06 | 59 | 1006.3 |
| 20260505033022 | 33 | 240 | 2.0 | 10.0 | 0.00 | 0.06 | 0.06 | 58 | 1006.1 |
| 20260505031526 | 33 | 270 | 2.0 | 10.0 | 0.00 | 0.06 | 0.06 | 58 | 1006.0 |
| 20260505030025 | 34 | 287 | 2.0 | 9.0 | 0.00 | 0.06 | 0.06 | 57 | 1006.0 |
| 20260505024527 | 35 | 276 | 2.0 | 11.0 | 0.00 | 0.06 | 0.06 | 56 | 1005.9 |
| 20260505023023 | 35 | 280 | 2.0 | 11.0 | 0.00 | 0.06 | 0.06 | 54 | 1005.7 |
| 20260505021504 | 36 | 254 | 3.0 | 13.0 | 0.00 | 0.06 | 0.06 | 52 | 1005.4 |
| 20260505020008 | 37 | 290 | 5.0 | 12.0 | 0.00 | 0.06 | 0.06 | 50 | 1005.2 |
| 20260505014522 | 38 | 291 | 4.0 | 16.0 | 0.00 | 0.06 | 0.06 | 49 | 1004.9 |
| 20260505013015 | 38 | 240 | 6.0 | 16.0 | 0.00 | 0.06 | 0.06 | 48 | 1004.7 |
| 20260505011526 | 39 | 284 | 5.0 | 14.0 | 0.00 | 0.06 | 0.06 | 42 | 1004.5 |
| 20260505010022 | 39 | 360 | 4.0 | 18.0 | 0.00 | 0.06 | 0.06 | 42 | 1004.2 |
| 20260505004509 | 39 | 298 | 3.0 | 12.0 | 0.00 | 0.06 | 0.06 | 44 | 1004.0 |
| 20260505003010 | 40 | 276 | 6.0 | 14.0 | 0.00 | 0.06 | 0.06 | 41 | 1003.9 |
| 20260505001515 | 40 | 294 | 7.0 | 15.0 | 0.00 | 0.06 | 0.06 | 41 | 1003.8 |
| 20260505000026 | 41 | 311 | 5.0 | 14.0 | 0.00 | 0.06 | 0.06 | 40 | 1003.5 |
| 20260504234522 | 42 | 294 | 4.0 | 11.0 | 0.00 | 0.06 | 0.06 | 39 | 1003.4 |
| 20260504233013 | 41 | 297 | 3.0 | 15.0 | 0.00 | 0.06 | 0.06 | 40 | 1003.3 |
| 20260504231512 | 42 | 347 | 7.0 | 16.0 | 0.00 | 0.06 | 0.06 | 38 | 1003.3 |
| 20260504230020 | 44 | 267 | 4.0 | 17.0 | 0.00 | 0.06 | 0.06 | 36 | 1003.0 |
| 20260504224522 | 42 | 278 | 4.0 | 13.0 | 0.00 | 0.06 | 0.06 | 43 | 1002.9 |
| 20260504223029 | 43 | 290 | 3.0 | 13.0 | 0.00 | 0.06 | 0.06 | 43 | 1002.7 |
| 20260504221510 | 42 | 281 | 7.0 | 14.0 | 0.00 | 0.06 | 0.06 | 41 | 1002.8 |
| 20260504220015 | 43 | 286 | 5.0 | 14.0 | 0.00 | 0.06 | 0.06 | 37 | 1002.6 |
| 20260504214522 | 43 | 282 | 3.0 | 16.0 | 0.00 | 0.06 | 0.06 | 38 | 1002.5 |
| 20260504213028 | 44 | 278 | 4.0 | 14.0 | 0.00 | 0.06 | 0.06 | 39 | 1002.3 |
| 20260504211535 | 44 | 271 | 6.0 | 16.0 | 0.00 | 0.06 | 0.06 | 38 | 1002.4 |
| 20260504210012 | 44 | 277 | 5.0 | 20.0 | 0.00 | 0.06 | 0.06 | 39 | 1002.2 |
| 20260504204519 | 46 | 316 | 5.0 | 15.0 | 0.00 | 0.06 | 0.06 | 36 | 1002.1 |
| 20260504203022 | 44 | 287 | 7.0 | 20.0 | 0.00 | 0.06 | 0.06 | 37 | 1002.1 |
| 20260504201526 | 44 | 311 | 6.0 | 16.0 | 0.00 | 0.06 | 0.06 | 38 | 1001.9 |
| 20260504200026 | 44 | 321 | 5.0 | 20.0 | 0.00 | 0.06 | 0.06 | 37 | 1001.9 |
| 20260504194517 | 47 | 287 | 6.0 | 16.0 | 0.00 | 0.06 | 0.06 | 37 | 1001.7 |
| 20260504193021 | 42 | 288 | 6.0 | 20.0 | 0.00 | 0.06 | 0.06 | 41 | 1001.9 |
| 20260504191527 | 43 | 307 | 4.0 | 21.0 | 0.00 | 0.06 | 0.06 | 44 | 1001.7 |
| 20260504190027 | 42 | 288 | 5.0 | 19.0 | 0.00 | 0.06 | 0.06 | 45 | 1001.6 |
| 20260504184542 | 41 | 291 | 5.0 | 15.0 | 0.00 | 0.06 | 0.06 | 44 | 1001.4 |
| 20260504183015 | 42 | 315 | 10.0 | 19.0 | 0.00 | 0.06 | 0.06 | 44 | 1001.2 |
| 20260504181526 | 40 | 265 | 8.0 | 27.0 | 0.00 | 0.06 | 0.06 | 49 | 1001.2 |
| 20260504180025 | 42 | 263 | 6.0 | 17.0 | 0.00 | 0.06 | 0.06 | 48 | 1001.0 |
| 20260504174526 | 40 | 285 | 4.0 | 16.0 | 0.00 | 0.06 | 0.06 | 51 | 1000.9 |
| 20260504173026 | 41 | 336 | 7.0 | 17.0 | 0.00 | 0.06 | 0.06 | 51 | 1000.7 |
| 20260504171521 | 42 | 328 | 7.0 | 18.0 | 0.00 | 0.06 | 0.06 | 51 | 1000.6 |
| 20260504081527 | 46 | 302 | 3.0 | 17.0 | 0.00 | 0.00 | 0.00 | 61 | 994.4 |